EAGLET 1
1 43790U 18099AJ  24300.11888276  .00010805  00000-0  76007-3 0  9997
2 43790  97.5124 354.2768 0012223 242.4759 117.5226 15.05184971321956
ESEO
1 43792U 18099AL  24300.40421205  .00004742  00000-0  37728-3 0  9996
2 43792  97.4936 350.4770 0006709 198.9301 161.1675 15.00846963321874
CSIM
1 43793U 18099AM  24300.68406647  .00057425  00000-0  22001-2 0  9993
2 43793  97.5161   5.0187 0010039 209.3677 150.6998 15.26273643322751
JO-97
1 43803U 18099AX  24300.10159174  .00023133  00000-0  13479-2 0  9990
2 43803  97.5038 356.1118 0008490 204.8779 155.2043 15.11968412322448
Suomi 100
1 43804U 18099AY  24300.10390539  .00019908  00000-0  12004-2 0  9991
2 43804  97.5111 355.8454 0014061 207.9925 152.0550 15.10708389322417
ISAT
1 43879U 18111D   24300.48877916  .00030708  00000-0  15702-2 0  9997
2 43879  97.6052 205.9446 0008796 271.1330  88.8895 15.16563627319279
UWE-4
1 43880U 18111E   24300.71480136  .00025696  00000-0  13775-2 0  9997
2 43880  97.5981 205.8094 0012488 280.9797  79.0030 15.14896711317303
Sparrow
1 43881U 18111F   24300.47658170  .00030613  00000-0  15370-2 0  9994
2 43881  97.6159 208.1117 0007516 326.3094  33.7661 15.17215491319341
Prox-1
1 44339U 19036A   24300.83404112  .00028254  00000-0  44007-2 0  9992
2 44339  23.9977  95.7294 0009117  36.2472 323.8640 14.71528787284718
SONATE
1 44400U 19038Q   24300.45920404  .00053433  00000-0  11466-2 0  9998
2 44400  97.7158 301.3271 0013387  11.2138 348.9405 15.44451303294262
Taurus 1
1 44530U 19059C   24300.82015069  .00022986  00000-0  48605-2 0  9992
2 44530  98.5868  64.8884 0009551  10.6025 349.5373 14.59253378270936
Duchifat 3
1 44854U 19089C   24300.46280226  .00038082  00000-0  15171-2 0  9999
2 44854  36.9543 327.9209 0009092 141.0661 219.0744 15.24296633268259
TO-108
1 44881U 19093C   24300.85317488  .00003487  00000-0  41949-3 0  9992
2 44881  97.8177  15.0794 0012873 250.0445 109.9383 14.84503034262570
FloripaSat 1
1 44885U 19093G   24300.83802985  .00017819  00000-0  17013-2 0  9993
2 44885  97.8329  22.6038 0011105 235.2595 124.7579 14.93302824262998
RS-44
1 44909U 19096E   24300.45640519  .00000012  00000-0 -33485-5 0  9996
2 44909  82.5265  17.5417 0218486 104.2745 258.2726 12.79735185225765
UPMSat 2
1 46276U 20061E   24300.70194458  .00041734  00000-0  96875-3 0  9998
2 46276  97.2815   5.9580 0001700  68.0822 292.0606 15.42258023230383
AmicalSat
1 46287U 20061R   24300.14226886  .00145673  00000-0  19606-2 0  9992
2 46287  97.3299   8.7986 0001391 135.9245 224.2121 15.57360002229780
SALSAT
1 46495U 20068K   24300.47909761  .00014832  00000-0  76070-3 0  9997
2 46495  97.8330 263.4767 0011221 215.6164 144.4320 15.16601096224187
UVSQ-SAT
1 47438U 21006AB  24298.11681880  .03670113  23594-5  18855-2 0  9991
2 47438  97.2775   3.3666 0006581 273.2868  86.7668 16.20433421208899
SOMP 2b
1 47445U 21006AJ  24300.22379988  .00421622  00000-0  20716-2 0  9995
2 47445  97.2932   2.2610 0001591 143.4403 216.6974 15.81085901209042
IDEASSat
1 47458U 21006AX  24300.69835812  .00229130  00000-0  19796-2 0  9999
2 47458  97.3082   2.4600 0003370 116.0588 244.1021 15.68503075208984
CubeSX-Sirius-HSE
1 47951U 21022V   24300.76230732  .00063780  00000-0  17844-2 0  9992
2 47951  97.4414 199.4986 0013813  42.8548 317.3769 15.36335128198696
CubeSX-HSE
1 47952U 21022W   24300.76653086  .00065742  00000-0  18231-2 0  9995
2 47952  97.4413 199.6293 0013942  41.9323 318.2986 15.36599821198708
KSU-Cubesat
1 47954U 21022Y   24300.20867884  .00082671  00000-0  18740-2 0  9994
2 47954  97.4416 201.2227 0012441  40.9378 319.2801 15.42704945198475
GRBAlpha
1 47959U 21022AD  24300.85485997  .00076123  00000-0  21043-2 0  9996
2 47959  97.4416 199.8861 0013835  41.9037 318.3263 15.36653627197549
Orbicraft-Zorkiy
1 47960U 21022AE  24300.87656508  .00090788  00000-0  21949-2 0  9996
2 47960  97.4454 201.8093 0012764  41.4436 318.7776 15.40725920198334
TUBIN
1 48900U 21059X   24300.86442688  .00047659  00000-0  12615-2 0  9991
2 48900  97.6603  90.1561 0005586 342.7509  17.3544 15.38214581185107
LEDSAT
1 49069U 21073D   24300.65310774  .00044371  00000-0  13651-2 0  9990
2 49069  97.4229  11.4840 0016517 174.8546 185.2870 15.33396329176533
CUTE
1 49263U 21088D   24300.74802937  .00050509  00000-0  17760-2 0  9994
2 49263  97.4813   6.5088 0010774 343.9274  16.1622 15.29132928169675
TeikyoSat 4
1 49396U 21102B   24300.82844534  .00005766  00000-0  40251-3 0  9993
2 49396  97.4443 341.2497 0012952 179.1364 180.9888 15.05662621162559
Z-Sat
1 49399U 21102E   24300.86286165  .00012602  00000-0  76015-3 0  9994
2 49399  97.4161 343.2264 0019967 160.5018 199.6980 15.10708614162858
KOSEN 1
1 49402U 21102H   24300.86761260  .00018307  00000-0  98611-3 0  9997
2 49402  97.4077 345.2177 0018706 142.1866 218.0684 15.14710733163050
HO-113
1 50466U 21131B   24300.88096975  .00001944  00000-0  62947-3 0  9999
2 50466  98.5231  25.3353 0005232  94.6164 265.5622 14.40138976148952
IRIS-A
1 51044U 22002BN  24300.46750109  .00056068  00000-0  13065-2 0  9993
2 51044  97.3678   7.2214 0003797 281.6979  78.3842 15.42066188154575
Planetum 1
1 52738U 22057G   24300.85429508  .00344080  00000-0  25245-2 0  9990
2 52738  97.5706  74.0031 0004068 317.7845  42.3104 15.72119553134998
Foresail-1
1 52766U 22057AL  24300.30875486  .00049585  00000-0  11416-2 0  9998
2 52766  97.5951  69.8685 0007408  23.6118 336.5467 15.42439141134585
SNUGLITE 2
1 52899U 22065F   24300.39136343  .00004064  00000-0  82262-3 0  9996
2 52899  98.1381  79.2199 0008616 102.6488 257.5677 14.61805995123421
IO-117
1 53106U 22080B   24281.96479996 -.00000003  00000-0  00000-0 0  9997
2 53106  70.1376 153.3488 0008243  81.8360 278.3235  6.42557544 52511
FO-118
1 54684U 22167C   24300.89481406  .00120078  00000-0  24301-2 0  9994
2 54684  97.6158  90.2201 0006803  27.6284 332.5325 15.45968364104521
SSS-2B
1 56184U 23054G   24300.82766258  .00210683  00000-0  21614-2 0  9997
2 56184  97.3446 201.4557 0008830  73.2172 287.0055 15.64222054 86523
SO-120
1 56992U 23084BU  24300.81020555  .00140481  00000-0  28563-2 0  9997
2 56992  97.5394  63.0223 0010064 273.0950  86.9147 15.45725163 76370
MRC-100
1 56993U 23084BV  24300.86029443  .00200872  00000-0  31786-2 0  9990
2 56993  97.5367  64.2072 0009874 269.2340  90.7781 15.52678868 76467
UmKA 1 (RS40S)
1 57172U 23091G   24300.37957231  .00011860  00000-0  72239-3 0  9995
2 57172  97.5952 351.2144 0016691  37.9159 322.3243 15.10427065 73277
CubeBel-2 (EU11S)
1 57175U 23091K   24300.83103042  .00023285  00000-0  13488-2 0  9996
2 57175  97.5956 351.8320 0015029  47.4627 312.7869 15.12115707 73351
VERONIKA
1 58261U 23174F   24300.80715046  .00071284  00000-0  23597-2 0  9999
2 58261  97.4468  15.0557 0010774 138.1819 222.0247 15.30991663 53779
KAFASAT
1 58317U 23174BP  24300.82077036  .00106544  00000-0  28225-2 0  9994
2 58317  97.4405  16.4574 0008728 115.3741 244.8408 15.37901024 53885
ENSO
1 58470U 23185J   24300.87929338  .00053490  00000-0  17475-2 0  9998
2 58470  97.4103   6.7559 0011097 168.4156 191.7342 15.31499976 50232
EIRSAT-1
1 58472U 23185L   24300.83208822  .00069760  00000-0  21581-2 0  9994
2 58472  97.4094   6.9390 0010575 169.0743 191.0730 15.33174473 50246
SO-121
1 58567U 23174CY  24300.48397068  .00808901  00000-0  43026-2 0  9995
2 58567  97.4280  19.3227 0002935 255.5152 104.5789 15.78306382 54041
SONATE-2
1 59112U 24043Q   24300.29499875  .00026337  00000-0  10829-2 0  9996
2 59112  97.4921  63.2692 0013366 193.7740 166.3134 15.24060059 35734
MO-122
1 60209U 24125G   24300.53641311  .00027261  00000-0  11150-2 0  9992
2 60209  97.3051 150.1774 0022784 220.4640 139.4904 15.24068438 17380
GRBBeta
1 60237U 24128C   24300.28925957  .00007867  00000-0  66155-3 0  9995
2 60237  61.9927 146.4151 0022679 356.2136   3.8778 14.98804113 16232
Curium One
1 60242U 24128H   24300.86265093  .00017588  00000-0  14534-2 0  9997
2 60242  61.9839 144.6238 0022778 344.9483  15.0925 14.98880532 16323
ROBUSTA-3A
1 60243U 24128J   24299.94425206  .00012771  00000-0  10693-2 0  9999
2 60243  61.9905 148.0217 0020805 340.9180  19.1127 14.98598576 16189
CatSat
1 60246U 24125J   24300.86513891  .00024676  00000-0  10273-2 0  9992
2 60246  97.2872 151.4978 0049838 172.3244 187.8767 15.22573579 15540
SR-0 DemoSAT
1 60455U 24147B   24300.44024412  .01290397  00000-0  57151-2 0  9990
2 60455  37.3676 207.2229 0028775 243.8454 115.9360 15.80195424 11047
Binar 4
1 60952U 98067WS  24300.52180903  .00904745  00000-0  33433-2 0  9996
2 60952  51.6257  19.2042 0010471  14.7457 345.3851 15.85304053  9090
CosmoGirlSat
1 60953U 98067WT  24300.51134617  .00230003  00000-0  20154-2 0  9992
2 60953  51.6329  21.4133 0004420  71.3785 288.7691 15.67591739  9065
Sakura
1 60954U 98067WU  24300.47359531  .00276607  00000-0  21629-2 0  9990
2 60954  51.6321  21.1583 0004781  52.8071 307.3362 15.70213618  9060
Binar 2
1 60956U 98067WW  24300.51541014  .00638755  00000-0  31960-2 0  9991
2 60956  51.6199  19.8955 0008880  22.0845 338.0537 15.79468188  9073
Binar 3
1 60957U 98067WX  24300.50483421  .00851093  00000-0  32643-2 0  9999
2 60957  51.6191  19.0784 0012084  17.6812 342.4609 15.84633080 11076
